Liege, Belgium

9:39 PM CET on December 03, 2016 (GMT +0100)
Liege

Weather History for EBLG - December, 2012

Change the Weather History Date:

Wednesday, December 19, 2012

  Actual Average Record
Temperature  
Mean Temperature 40 °F -  
Max Temperature 43 °F 39 °F 57 °F (2015)
Min Temperature 37 °F 32 °F 24 °F (2007)
Degree Days  
Heating Degree Days 25    
Moisture  
Dew Point 37 °F    
Average Humidity 87    
Maximum Humidity 100    
Minimum Humidity 75    
Precipitation  
Precipitation 0.00 in - - ()
Sea Level Pressure  
Sea Level Pressure 30.15 in    
Wind  
Wind Speed 5 mph ()    
Max Wind Speed 9 mph    
Max Gust Speed 17 mph    
Visibility 3.5 miles    
Events      
Averages and records for this station are not official NWS values.
T = Trace of Precipitation, MM = Missing Value Source: Averaged Metar Reports

Daily Weather History Graph

Daily Weather History Graph

Search for Another Location

Airport or City:

Trip Planner

Search our weather history database for the weather conditions in past years. The results will help you decide how hot, cold, wet, or windy it might be!

Date:

Astronomy

Dec. 19, 2012 Rise Set
Actual Time 8:36 AM CET 4:34 PM CET
Civil Twilight 7:57 AM CET 5:13 PM CET
Nautical Twilight 7:14 AM CET 5:56 PM CET
Astronomical Twilight 6:34 AM CET 6:36 PM CET
Moon 11:57 AM CET (12/19) No Moon Set
Length of Visible Light 9h 16m
Length of Day
7h 58m
Waxing Crescent, 42% of the Moon is Illuminated
Dec 19
Waxing Crescent
Dec 20
First Quarter
Dec 28
Full
Jan 5
Last Quarter
Jan 11
New

Hourly Weather History & Observations

Time (CET) Temp. Windchill Dew Point Humidity Pressure Visibility Wind Dir Wind Speed Gust Speed Precip Events Conditions
12:20 AM 41.0 °F 36.4 °F 39.2 °F 93% 30.12 in 1.9 mi SW 6.9 mph - N/A   Mostly Cloudy
12:50 AM 41.0 °F 37.1 °F 39.2 °F 93% 30.12 in 1.7 mi SW 5.8 mph - N/A   Mostly Cloudy
1:00 AM 41 °F - 40 °F 93% 30.15 in 2 mi SW 6.7 mph - -   Mist
1:20 AM 41.0 °F 37.1 °F 39.2 °F 93% 30.12 in 1.7 mi SW 5.8 mph - N/A   Mostly Cloudy
1:50 AM 41.0 °F 37.1 °F 39.2 °F 93% 30.12 in 1.7 mi SSW 5.8 mph - N/A   Mostly Cloudy
2:20 AM 41.0 °F 37.1 °F 39.2 °F 93% 30.12 in 1.6 mi SW 5.8 mph - N/A   Mostly Cloudy
2:50 AM 41.0 °F 38.0 °F 39.2 °F 93% 30.12 in 1.6 mi SSW 4.6 mph - N/A   Mostly Cloudy
3:20 AM 41.0 °F 38.0 °F 39.2 °F 93% 30.12 in 1.6 mi South 4.6 mph - N/A   Mostly Cloudy
3:50 AM 41.0 °F 38.0 °F 39.2 °F 93% 30.12 in 1.6 mi South 4.6 mph - N/A   Mostly Cloudy
4:00 AM 40 °F - 40 °F 98% 30.16 in 2 mi South 4.5 mph - -   Mist
4:20 AM 41.0 °F 38.0 °F 39.2 °F 93% 30.12 in 1.6 mi South 4.6 mph - N/A   Mostly Cloudy
4:50 AM 41.0 °F 36.4 °F 39.2 °F 93% 30.12 in 1.6 mi South 6.9 mph - N/A   Mostly Cloudy
5:20 AM 41.0 °F 37.1 °F 39.2 °F 93% 30.12 in 1.6 mi South 5.8 mph - N/A   Mostly Cloudy
5:50 AM 39.2 °F 35.9 °F 39.2 °F 100% 30.15 in 1.6 mi South 4.6 mph - N/A   Mostly Cloudy
6:20 AM 41.0 °F 38.0 °F 39.2 °F 93% 30.15 in 1.6 mi South 4.6 mph - N/A   Mostly Cloudy
6:50 AM 39.2 °F 35.9 °F 39.2 °F 100% 30.15 in 1.6 mi SSE 4.6 mph - N/A   Mostly Cloudy
7:00 AM 40 °F - 39 °F 93% 30.18 in 2 mi SSE 4.5 mph - -   Mist
7:20 AM 41.0 °F 38.0 °F 39.2 °F 93% 30.15 in 1.6 mi SSE 4.6 mph - N/A   Mostly Cloudy
7:50 AM 41.0 °F 39.0 °F 39.2 °F 93% 30.15 in 1.6 mi SSE 3.5 mph - N/A   Mostly Cloudy
8:20 AM 41.0 °F 39.0 °F 39.2 °F 93% 30.15 in 1.7 mi SSE 3.5 mph - N/A   Mostly Cloudy
8:50 AM 39.2 °F 37.0 °F 37.4 °F 93% 30.18 in 1.7 mi SE 3.5 mph - N/A   Mostly Cloudy
9:20 AM 41.0 °F 39.0 °F 37.4 °F 87% 30.18 in 1.7 mi SSE 3.5 mph - N/A   Mostly Cloudy
9:50 AM 41.0 °F 39.0 °F 39.2 °F 93% 30.18 in 1.9 mi SSE 3.5 mph - N/A   Mostly Cloudy
10:00 AM 40 °F - 38 °F 92% 30.21 in 2 mi SSE 4.5 mph - -   Mist
10:20 AM 41.0 °F 38.0 °F 37.4 °F 87% 30.18 in 2.5 mi SSE 4.6 mph - N/A   Mostly Cloudy
10:50 AM 41.0 °F 37.1 °F 39.2 °F 93% 30.18 in - SSE 5.8 mph - N/A   Mostly Cloudy
11:20 AM 41.0 °F 38.0 °F 39.2 °F 93% 30.18 in 3.1 mi SSE 4.6 mph - N/A   Mostly Cloudy
11:50 AM 41.0 °F 37.1 °F 37.4 °F 87% 30.18 in 4.3 mi SSE 5.8 mph - N/A   Mostly Cloudy
12:20 PM 41.0 °F 38.0 °F 37.4 °F 87% 30.18 in 5.0 mi SSE 4.6 mph - N/A   Mostly Cloudy
12:50 PM 42.8 °F 39.3 °F 37.4 °F 81% 30.18 in 5.6 mi SSE 5.8 mph - N/A   Mostly Cloudy
1:00 PM 42 °F - 38 °F 81% 30.21 in 6 mi SSE 6.7 mph - -   Mostly Cloudy
1:20 PM 42.8 °F 40.1 °F 37.4 °F 81% 30.18 in 5.6 mi SSE 4.6 mph - N/A   Mostly Cloudy
1:50 PM 42.8 °F 39.3 °F 37.4 °F 81% 30.18 in 6.2 mi SSE 5.8 mph - N/A   Mostly Cloudy
2:20 PM 42.8 °F 39.3 °F 37.4 °F 81% 30.15 in 6.2 mi South 5.8 mph - N/A   Mostly Cloudy
2:50 PM 42.8 °F 40.1 °F 37.4 °F 81% 30.15 in 6.2 mi SSE 4.6 mph - N/A   Mostly Cloudy
3:20 PM 42.8 °F 40.1 °F 37.4 °F 81% 30.18 in 5.6 mi SSE 4.6 mph - N/A   Mostly Cloudy
3:50 PM 42.8 °F 40.1 °F 37.4 °F 81% 30.18 in 5.6 mi SE 4.6 mph - N/A   Mostly Cloudy
4:00 PM 43 °F - 38 °F 76% 30.21 in 6 mi SE 4.5 mph - -   Mostly Cloudy
4:20 PM 42.8 °F 40.1 °F 37.4 °F 81% 30.18 in 5.6 mi SE 4.6 mph - N/A   Mostly Cloudy
4:50 PM 41.0 °F 37.1 °F 37.4 °F 87% 30.15 in 5.6 mi ESE 5.8 mph - N/A   Scattered Clouds
5:20 PM 41.0 °F 37.1 °F 35.6 °F 81% 30.18 in 5.6 mi ESE 5.8 mph - N/A   Partly Cloudy
5:50 PM 41.0 °F 36.4 °F 35.6 °F 81% 30.15 in 5.6 mi SE 6.9 mph - N/A   Partly Cloudy
6:20 PM 39.2 °F 34.2 °F 33.8 °F 81% 30.15 in 5.6 mi SE 6.9 mph - N/A   Partly Cloudy
6:50 PM 39.2 °F 35.0 °F 33.8 °F 81% 30.15 in - SE 5.8 mph - N/A   Clear
7:00 PM 39 °F - 34 °F 75% 30.20 in 6 mi SE 6.7 mph - -   Clear
7:20 PM 39.2 °F 35.0 °F 33.8 °F 81% 30.15 in - SE 5.8 mph - N/A   Clear
7:50 PM 37.4 °F 32.8 °F 33.8 °F 87% 30.15 in 5.6 mi SE 5.8 mph - N/A   Unknown
8:20 PM 37.4 °F 32.8 °F 33.8 °F 87% 30.15 in 5.6 mi SE 5.8 mph - N/A   Unknown
8:50 PM 37.4 °F 32.8 °F 33.8 °F 87% 30.15 in 5.6 mi Variable 5.8 mph 17.3 mph N/A   Unknown
9:20 PM 37.4 °F 32.8 °F 32.0 °F 81% 30.12 in - SE 5.8 mph - N/A   Clear
9:50 PM 37.4 °F 32.8 °F 32.0 °F 81% 30.12 in - SE 5.8 mph 17.3 mph N/A   Clear
10:00 PM 37 °F - 33 °F 78% 30.16 in 6 mi SE 6.7 mph - -   Clear
10:20 PM 37.4 °F 34.9 °F 32.0 °F 81% 30.12 in - SE 3.5 mph - N/A   Clear
10:50 PM 37.4 °F 32.8 °F 32.0 °F 81% 30.12 in - ESE 5.8 mph - N/A   Clear
11:20 PM 37.4 °F 32.1 °F 32.0 °F 81% 30.12 in - ESE 6.9 mph - N/A   Clear
11:50 PM 37.4 °F 30.8 °F 33.8 °F 87% 30.09 in - ESE 9.2 mph - N/A   Clear